Wind_Speed
18 18 17 15 14 10 6 6 3 1 2 2 5 6 6 5 6 7 6 2 2 2 1 2 9 12 12 11 4 6 9 8 7 6 6 5 3 2 2 4 6 8 8 9 8 9 11 11 11
21 20 19 16 15 13 11 6 4 2 4 5 7 8 8 9 10 9 6 2 2 1 2 3 6 9 13 11 8 6 6 4 6 5 3 1 1 2 5 6 6 6 6 6 7 7 8 9 9
23 22 20 20 16 13 10 9 6 4 5 9 8 7 10 11 11 10 9 6 3 3 4 6 6 10 13 12 9 8 5 5 5 5 3 3 4 2 5 4 4 4 4 6 6 7 9 9 10
25 23 22 21 16 12 11 10 8 6 8 11 13 8 11 12 11 11 13 12 11 8 7 8 8 9 10 10 7 5 4 2 3 4 4 3 3 4 2 2 3 5 6 8 9 11 11 11 12
28 26 25 21 15 15 15 11 9 8 9 12 13 12 14 11 12 16 16 15 15 14 14 14 13 13 10 8 6 7 4 4 3 6 5 5 6 4 1 4 6 8 10 10 11 11 11 12 12
30 28 26 20 17 17 17 13 10 10 11 13 11 14 15 13 15 18 19 18 18 18 18 16 14 13 12 9 11 9 8 12 11 9 8 8 6 6 7 9 9 9 10 10 10 11 11 12 12
32 29 29 25 23 20 17 15 13 13 13 14 12 14 15 14 14 19 20 20 20 20 21 21 22 22 20 18 16 14 13 13 12 12 11 11 10 10 10 11 10 10 10 11 10 9 9 10 11
36 35 33 28 26 22 19 17 14 13 14 14 12 12 14 16 14 15 19 21 22 21 21 21 21 22 20 18 16 15 15 15 15 14 14 13 12 11 10 10 9 9 8 8 9 10 11 12 12
39 38 32 29 27 25 21 19 17 16 15 15 13 14 14 18 16 14 15 18 20 20 21 22 22 22 21 20 19 18 17 17 16 15 13 11 10 9 8 8 8 9 10 11 12 12 12 13 14
41 38 35 32 27 25 25 23 21 16 15 14 13 14 14 16 18 15 15 15 17 17 18 20 21 21 21 19 19 18 16 14 13 12 11 10 9 8 7 8 9 10 10 10 11 12 13 14 14
43 39 39 32 29 28 27 25 21 18 15 14 13 13 14 14 16 17 14 13 14 14 15 17 18 18 18 17 16 14 13 13 12 11 10 9 9 8 8 9 9 9 10 10 11 11 13 14 15
45 44 40 35 34 32 29 26 23 20 16 16 15 13 14 13 14 15 15 14 13 12 13 14 14 15 15 15 14 13 12 12 12 11 10 9 8 8 8 8 8 8 9 9 10 12 12 13 14
48 50 42 40 38 35 31 29 24 21 18 17 16 14 14 14 14 14 16 15 15 13 12 13 13 13 14 13 13 13 12 10 8 7 7 7 7 6 6 6 7 8 9 10 12 13 15 15 16
49 47 43 42 38 36 33 29 25 22 21 19 18 17 15 15 14 14 15 14 12 12 10 9 11 12 12 12 11 9 7 5 4 4 5 6 6 6 6 7 8 10 11 13 14 15 16 17 18
52 46 45 44 42 38 35 31 27 26 24 21 20 18 17 15 14 13 12 13 12 11 10 10 10 11 10 8 5 4 2 1 3 5 6 8 8 8 9 9 11 12 13 14 16 18 20 21 22
54 51 49 47 45 42 37 34 31 30 27 25 22 19 18 16 13 13 11 11 10 9 8 9 9 8 7 4 4 3 4 4 6 7 9 9 10 11 12 12 13 16 17 19 20 21 23 25 26
56 55 55 53 48 44 41 38 34 32 30 28 25 22 19 16 15 14 13 11 12 11 10 8 7 6 7 6 7 8 9 9 10 11 13 14 13 13 14 14 15 19 21 22 25 26 28 30 32
59 59 55 51 47 45 42 39 35 33 32 30 27 24 21 19 17 15 14 14 13 12 10 11 10 10 10 11 12 14 15 15 15 16 17 17 19 18 18 19 21 23 24 26 28 30 31 33 35
61 54 52 51 49 48 44 41 37 37 36 33 30 26 24 21 19 18 17 15 14 14 13 14 15 16 16 17 17 18 20 20 20 21 22 22 22 22 23 25 27 28 29 31 33 35 36 38 40
63 57 56 52 49 46 46 43 41 39 37 37 34 30 28 24 21 21 19 18 17 17 17 17 19 19 18 20 20 21 22 24 24 25 24 25 26 26 27 28 30 32 34 36 38 39 41 43 45
63 60 59 56 50 49 48 47 46 41 40 38 35 33 29 27 26 23 21 19 19 19 19 19 19 21 21 22 22 23 25 27 26 27 28 28 29 31 32 33 34 36 37 40 42 44 45 46 48
66 62 60 55 49 51 51 50 47 43 41 41 38 35 30 29 25 23 22 21 22 21 21 22 23 23 24 26 27 27 28 29 30 30 31 32 33 34 35 37 39 40 41 44 46 47 49 50 50
64 61 58 55 52 53 54 54 50 48 47 43 39 36 32 31 28 26 25 23 23 24 24 26 26 26 25 26 29 31 30 32 33 33 34 35 37 38 39 41 42 43 45 46 47 49 50 51 52
62 63 58 55 52 57 57 57 52 51 45 44 43 38 34 33 30 29 27 27 26 27 28 27 27 27 27 28 31 32 32 35 35 36 38 39 40 41 43 43 44 45 46 48 49 51 51 52 55
64 61 58 55 58 63 60 59 55 52 50 47 42 39 37 36 33 31 30 30 29 29 28 28 28 29 30 31 32 33 33 36 37 38 39 40 41 42 43 44 45 46 48 49 49 51 54 56 58
66 62 63 64 64 65 62 64 59 52 49 46 42 41 39 37 35 34 33 32 32 31 30 31 32 33 34 33 34 34 35 37 38 39 39 40 42 43 43 45 46 46 48 51 53 56 57 58 59
64 63 60 60 61 61 60 60 56 50 48 45 43 42 41 39 38 36 35 35 34 33 33 34 34 35 35 36 37 37 38 38 39 39 40 41 42 43 44 46 48 50 52 54 56 57 58 59 61
60 57 61 62 63 65 63 62 58 51 46 45 42 41 41 41 40 40 37 36 36 37 36 36 36 36 37 38 38 40 41 40 40 42 42 40 42 44 47 49 51 53 54 57 57 57 59 61 62
60 62 62 59 61 63 63 60 54 47 45 43 42 43 42 42 42 42 40 40 39 38 38 37 36 37 39 40 41 42 41 41 41 42 43 44 45 48 50 51 54 56 57 57 57 59 62 60 53
57 55 57 60 60 60 59 57 53 47 43 42 42 42 40 41 43 43 43 41 40 39 37 37 38 40 42 42 42 41 42 41 42 44 46 47 49 51 53 55 57 57 56 57 60 60 56 50 50
Wind_Direction
189 185 191 190 196 203 205 199 152 56 32 53 73 60 63 61 77 88 92 116 100 72 108 210 212 194 197 198 171 208 151 123 130 127 128 128 132 90 32 339 329 329 333 334 337 352 353 353 352
186 187 186 190 195 194 189 146 129 83 67 82 80 81 74 80 79 83 104 71 184 208 138 147 183 186 190 174 173 150 108 126 117 136 126 74 6 34 356 346 341 343 347 357 355 354 355 6 7
186 188 184 194 199 188 177 150 142 120 104 88 73 82 81 82 79 87 89 99 97 108 141 163 158 180 181 180 189 129 99 115 110 103 66 336 307 357 353 352 7 9 3 3 14 18 17 15 18
187 186 189 196 199 189 164 154 155 140 114 91 82 89 91 88 89 87 94 89 84 87 97 142 135 149 171 169 162 139 143 110 90 78 48 84 80 67 28 2 1 14 30 25 25 30 33 36 33
189 186 193 196 187 176 164 164 156 150 127 104 97 88 89 93 95 84 84 89 88 81 92 101 114 127 152 164 174 155 107 102 112 109 97 104 90 71 53 57 44 40 45 49 48 42 39 36 34
189 190 194 191 187 179 173 163 170 156 133 114 113 103 92 92 96 93 89 94 94 93 95 97 107 127 140 141 128 119 100 96 106 109 102 89 85 82 80 76 74 66 62 58 52 44 34 29 26
190 190 194 188 188 180 172 169 176 160 139 125 122 109 102 93 92 94 93 95 98 100 99 99 98 103 108 108 111 115 112 105 103 99 95 94 96 90 83 80 73 65 55 51 44 37 27 18 15
192 192 197 186 190 177 179 176 176 162 150 132 126 117 111 102 92 95 100 97 96 99 100 102 102 104 106 107 107 104 101 101 102 104 103 103 96 87 79 69 64 54 45 33 29 21 14 11 8
194 196 193 189 197 180 180 179 174 173 153 146 147 129 123 111 102 97 97 104 104 106 107 106 106 106 106 107 107 109 110 110 110 106 101 97 89 79 70 62 53 43 34 25 18 12 7 5 2
195 193 193 191 193 185 183 184 179 173 165 151 149 138 129 121 115 108 105 100 104 109 114 116 116 117 117 118 118 116 114 110 102 96 90 81 76 70 59 45 38 31 26 19 14 8 4 3 4
193 194 196 188 189 189 191 188 179 180 174 161 160 153 139 131 122 120 112 108 110 112 112 115 118 118 119 120 116 112 109 104 97 86 77 69 58 44 36 25 21 18 14 12 11 11 10 7 6
193 196 195 188 191 191 191 192 189 186 184 179 176 167 152 145 132 127 123 118 112 111 116 116 114 114 113 112 109 106 99 90 83 72 56 42 28 15 3 2 6 7 10 8 5 1 357 354 351
195 199 191 191 194 195 191 196 192 190 192 190 182 176 167 160 149 143 134 131 127 123 122 119 115 115 116 116 114 109 101 91 77 61 43 27 15 4 1 1 0 356 353 349 348 343 339 337 337
202 199 194 194 196 197 194 199 195 196 192 191 182 184 183 177 166 158 148 145 142 138 138 136 133 131 129 126 122 113 107 94 69 38 18 14 4 352 347 343 338 333 331 331 330 327 325 326 327
203 200 198 198 196 200 197 196 194 202 193 189 184 184 182 187 180 166 160 156 157 158 159 155 148 141 140 136 130 125 110 21 345 338 345 345 345 339 333 328 325 322 321 320 318 318 320 322 323
201 200 200 203 199 198 200 198 197 201 195 190 189 185 182 183 174 174 169 164 161 160 161 162 158 158 160 174 198 219 256 278 298 313 317 318 324 326 326 323 317 312 310 312 312 313 314 315 317
203 203 202 200 202 201 199 201 201 202 199 196 193 191 192 182 181 174 168 168 165 166 181 191 199 204 216 228 256 264 273 286 295 298 300 300 302 305 309 307 303 300 303 306 309 310 312 313 314
205 206 204 204 205 204 204 202 204 205 204 202 200 196 197 193 196 191 191 195 199 196 205 232 240 247 253 260 266 277 280 282 285 287 290 292 296 300 300 297 294 293 297 301 302 304 306 307 308
208 208 208 204 205 206 207 206 206 209 208 204 205 204 205 203 204 209 213 216 226 237 238 246 255 257 263 263 264 268 275 279 280 282 285 289 292 291 290 291 293 294 297 299 301 303 305 306 306
204 203 208 207 207 212 212 209 210 212 212 211 209 208 209 206 205 215 219 225 232 240 245 251 258 261 263 265 269 272 272 273 276 281 284 286 287 287 287 287 289 294 298 300 301 302 303 304 305
203 204 208 206 206 211 213 213 214 212 216 215 215 212 211 210 211 216 223 230 237 244 249 254 258 268 273 273 272 273 274 276 280 282 284 284 285 286 288 290 293 295 295 297 299 301 303 304 304
205 205 209 207 206 210 214 215 219 213 216 218 216 216 215 218 221 225 228 234 243 250 258 262 263 260 264 270 272 271 274 277 279 280 283 285 286 288 289 291 292 294 296 297 299 300 302 303 304
205 206 209 207 207 210 215 217 216 217 216 219 219 220 221 221 225 233 237 240 249 255 258 263 265 268 266 265 271 274 276 277 279 283 285 287 288 290 290 292 293 296 297 298 299 301 302 303 302
205 207 207 209 208 213 216 220 214 220 220 219 222 222 224 228 229 234 239 248 252 257 260 263 268 272 275 272 272 275 280 282 286 287 288 289 290 291 293 295 296 297 298 299 300 300 301 302 303
205 208 207 209 211 213 215 221 217 217 220 221 222 227 229 230 234 238 243 249 254 259 264 268 270 272 273 274 277 279 280 282 283 283 284 287 288 290 291 293 294 295 296 297 298 299 300 300 301
207 209 211 209 211 215 215 221 222 219 220 223 226 229 234 237 239 241 245 250 254 258 262 267 270 271 273 275 277 279 279 280 281 283 285 286 288 289 291 293 294 294 295 296 298 299 300 300 301
209 212 211 214 218 222 223 226 227 224 223 223 228 234 236 238 242 246 249 253 256 258 260 264 268 271 275 277 278 279 279 279 282 283 284 285 287 290 291 293 294 295 296 297 298 298 299 299 299
212 214 214 216 218 223 225 226 227 227 228 228 229 233 238 241 244 246 250 253 256 259 262 265 268 271 273 275 277 277 278 279 281 282 284 287 289 290 292 293 294 295 296 296 296 297 297 298 299
211 211 214 219 224 228 232 230 231 231 233 235 236 238 240 242 245 249 252 254 257 260 261 264 268 270 271 273 274 275 278 279 280 282 286 288 290 290 291 292 292 293 294 294 295 297 297 297 298
217 218 222 223 223 227 232 235 235 236 237 240 241 242 245 248 250 253 255 257 258 261 264 266 267 269 272 273 275 277 279 279 282 284 285 286 287 289 291 291 293 293 293 295 296 296 295 294 296
Height
5854 5856 5859 5861 5865 5864 5865 5866 5866 5866 5866 5866 5865 5864 5864 5863 5864 5866 5865 5865 5866 5867 5868 5868 5871 5875 5878 5880 5883 5884 5885 5887 5889 5891 5892 5893 5894 5895 5895 5895 5895 5894 5894 5894 5894 5893 5891 5890 5888
5851 5855 5858 5858 5861 5862 5864 5865 5865 5867 5867 5866 5864 5864 5865 5864 5864 5864 5865 5865 5866 5866 5867 5869 5871 5874 5877 5881 5883 5884 5885 5888 5889 5891 5893 5893 5894 5895 5895 5895 5895 5895 5894 5893 5892 5890 5889 5888 5887
5848 5854 5855 5856 5859 5862 5863 5864 5865 5867 5867 5865 5865 5865 5864 5865 5864 5865 5865 5866 5866 5866 5867 5868 5870 5873 5877 5881 5882 5884 5887 5889 5890 5891 5893 5894 5894 5894 5894 5894 5894 5893 5893 5891 5890 5889 5888 5887 5886
5847 5851 5853 5856 5859 5861 5864 5864 5866 5867 5867 5867 5866 5867 5865 5865 5866 5866 5865 5866 5866 5866 5867 5868 5871 5874 5878 5881 5883 5885 5887 5889 5890 5891 5892 5893 5893 5894 5894 5894 5893 5892 5892 5891 5889 5889 5888 5888 5886
5844 5848 5851 5854 5857 5861 5862 5864 5865 5867 5868 5867 5868 5868 5867 5868 5868 5867 5866 5867 5868 5868 5869 5870 5872 5875 5879 5882 5884 5886 5888 5889 5890 5891 5892 5893 5893 5893 5893 5893 5892 5892 5892 5891 5890 5890 5889 5888 5886
5841 5846 5850 5854 5857 5860 5861 5862 5866 5867 5868 5868 5870 5869 5868 5870 5870 5868 5868 5869 5869 5870 5871 5871 5873 5876 5879 5882 5884 5887 5888 5889 5890 5891 5892 5893 5894 5894 5894 5893 5892 5892 5891 5890 5890 5888 5887 5886 5885
5839 5845 5849 5852 5856 5858 5859 5862 5866 5867 5868 5869 5871 5870 5871 5872 5872 5870 5871 5871 5872 5873 5873 5874 5875 5877 5879 5882 5885 5887 5889 5890 5891 5892 5893 5894 5895 5894 5894 5893 5892 5891 5890 5890 5889 5888 5887 5885 5884
5836 5842 5845 5851 5854 5856 5859 5862 5866 5868 5868 5870 5871 5871 5872 5873 5874 5873 5873 5873 5874 5875 5876 5877 5878 5879 5882 5884 5887 5889 5890 5891 5892 5893 5894 5894 5894 5894 5894 5893 5892 5892 5891 5890 5889 5888 5887 5885 5884
5833 5839 5844 5848 5854 5854 5858 5862 5865 5866 5867 5869 5871 5871 5873 5873 5875 5875 5877 5876 5876 5878 5879 5880 5880 5882 5883 5886 5888 5890 5891 5892 5893 5893 5894 5894 5895 5895 5894 5894 5893 5892 5892 5890 5889 5888 5887 5885 5883
5829 5835 5840 5845 5852 5853 5856 5860 5862 5866 5867 5870 5871 5872 5873 5874 5874 5877 5878 5880 5880 5882 5882 5882 5883 5883 5885 5888 5889 5890 5892 5893 5894 5894 5894 5895 5895 5895 5894 5893 5893 5892 5891 5890 5889 5887 5886 5884 5882
5826 5833 5835 5844 5849 5851 5855 5858 5861 5864 5867 5870 5871 5872 5874 5875 5876 5877 5878 5881 5883 5884 5885 5885 5885 5886 5887 5888 5889 5891 5892 5893 5894 5894 5895 5895 5895 5895 5894 5893 5892 5891 5890 5889 5888 5887 5885 5883 5882
5822 5827 5832 5841 5846 5849 5853 5855 5859 5862 5866 5868 5870 5872 5874 5875 5876 5878 5879 5881 5884 5885 5886 5886 5887 5887 5889 5890 5891 5892 5893 5894 5895 5896 5896 5896 5895 5895 5894 5893 5892 5891 5891 5889 5888 5886 5885 5883 5882
5818 5819 5830 5836 5842 5845 5849 5852 5858 5861 5863 5866 5869 5872 5873 5875 5876 5878 5879 5881 5883 5886 5886 5887 5888 5889 5890 5890 5891 5893 5894 5894 5895 5895 5895 5895 5894 5893 5893 5892 5891 5890 5889 5888 5887 5885 5884 5882 5880
5815 5818 5827 5832 5839 5842 5847 5851 5856 5859 5862 5864 5867 5870 5873 5874 5875 5877 5878 5880 5882 5884 5887 5888 5888 5889 5890 5891 5892 5893 5894 5895 5895 5895 5895 5893 5893 5892 5891 5890 5889 5889 5887 5886 5884 5883 5881 5879 5878
5810 5817 5823 5828 5832 5837 5843 5848 5853 5855 5859 5863 5865 5868 5871 5874 5876 5877 5878 5879 5882 5884 5885 5886 5887 5888 5890 5892 5893 5893 5894 5894 5894 5894 5894 5893 5892 5891 5891 5890 5889 5887 5885 5883 5882 5880 5879 5877 5875
5803 5810 5816 5824 5827 5833 5840 5845 5848 5852 5856 5860 5863 5866 5869 5872 5875 5877 5878 5879 5881 5884 5887 5888 5888 5888 5889 5890 5891 5892 5892 5892 5892 5891 5891 5891 5890 5889 5888 5888 5886 5884 5882 5880 5878 5877 5875 5872 5871
5796 5803 5806 5814 5822 5828 5833 5839 5845 5849 5854 5858 5860 5863 5867 5870 5873 5875 5877 5879 5880 5882 5884 5886 5888 5888 5888 5888 5889 5889 5889 5889 5889 5888 5888 5888 5887 5887 5885 5884 5882 5879 5877 5876 5875 5873 5871 5868 5865
5791 5796 5803 5812 5819 5825 5830 5836 5842 5847 5851 5854 5857 5860 5864 5867 5870 5873 5874 5876 5878 5879 5882 5883 5885 5887 5887 5887 5886 5887 5886 5886 5885 5885 5884 5884 5883 5883 5882 5880 5878 5876 5874 5872 5869 5867 5866 5863 5859
5787 5796 5803 5808 5813 5819 5827 5832 5838 5841 5847 5851 5855 5856 5861 5864 5868 5870 5872 5874 5876 5878 5879 5880 5881 5882 5883 5883 5882 5882 5882 5882 5881 5880 5881 5881 5879 5878 5876 5874 5872 5870 5868 5865 5863 5861 5859 5855 5852
5777 5788 5796 5803 5809 5818 5822 5828 5832 5837 5843 5846 5850 5853 5857 5861 5863 5866 5869 5871 5873 5875 5875 5877 5877 5878 5878 5879 5878 5878 5877 5876 5876 5876 5875 5875 5874 5872 5871 5869 5867 5864 5863 5859 5855 5853 5850 5847 5842
5772 5780 5787 5795 5803 5810 5816 5821 5824 5832 5837 5842 5846 5849 5853 5857 5858 5862 5864 5867 5869 5870 5872 5873 5874 5874 5872 5874 5874 5873 5871 5871 5871 5870 5870 5868 5868 5866 5865 5862 5861 5858 5854 5851 5849 5845 5842 5838 5834
5765 5773 5780 5790 5797 5802 5808 5814 5817 5825 5831 5836 5840 5845 5850 5854 5856 5858 5860 5862 5864 5864 5866 5867 5869 5871 5870 5868 5868 5868 5867 5866 5865 5863 5862 5861 5860 5859 5857 5855 5853 5850 5847 5843 5839 5835 5832 5828 5824
5760 5768 5776 5784 5788 5795 5799 5805 5812 5816 5822 5829 5835 5839 5845 5849 5851 5853 5855 5856 5858 5859 5860 5861 5861 5863 5866 5865 5862 5861 5861 5859 5858 5858 5856 5854 5852 5851 5849 5847 5844 5842 5839 5835 5831 5826 5822 5818 5813
5753 5759 5768 5776 5781 5785 5793 5797 5805 5810 5819 5824 5828 5832 5838 5842 5845 5847 5849 5851 5852 5854 5854 5854 5855 5855 5857 5857 5856 5856 5855 5853 5852 5851 5849 5847 5845 5843 5841 5839 5836 5833 5830 5826 5822 5817 5812 5808 5803
5742 5751 5759 5766 5770 5774 5784 5787 5797 5803 5810 5817 5823 5827 5831 5834 5837 5840 5842 5845 5846 5847 5848 5848 5848 5848 5849 5849 5848 5849 5848 5847 5845 5843 5842 5840 5838 5836 5833 5830 5827 5824 5820 5816 5812 5807 5802 5796 5791
5734 5743 5748 5753 5761 5766 5773 5774 5786 5796 5804 5811 5817 5820 5824 5828 5831 5834 5836 5838 5839 5839 5840 5840 5841 5841 5842 5841 5841 5840 5839 5838 5837 5835 5834 5832 5830 5827 5824 5822 5818 5814 5811 5806 5802 5797 5792 5786 5780
5727 5735 5746 5752 5758 5762 5770 5775 5784 5791 5799 5806 5810 5814 5817 5820 5823 5826 5828 5829 5831 5833 5833 5833 5834 5835 5835 5835 5834 5833 5831 5829 5829 5827 5825 5823 5821 5819 5816 5812 5809 5805 5800 5796 5790 5785 5780 5773 5767
5720 5734 5737 5741 5749 5753 5758 5765 5773 5784 5793 5798 5802 5806 5810 5813 5815 5817 5819 5821 5822 5823 5824 5826 5826 5827 5827 5827 5825 5824 5823 5822 5820 5818 5816 5814 5811 5808 5806 5802 5798 5793 5788 5784 5778 5773 5768 5761 5754
5712 5716 5725 5736 5743 5747 5753 5762 5772 5781 5786 5792 5795 5798 5801 5804 5806 5809 5810 5812 5813 5814 5816 5817 5818 5818 5818 5817 5815 5814 5813 5812 5810 5808 5806 5804 5801 5798 5794 5790 5786 5781 5776 5772 5767 5761 5756 5749 5743
5705 5715 5722 5726 5733 5739 5745 5756 5764 5773 5778 5783 5786 5788 5792 5795 5798 5799 5801 5802 5803 5805 5807 5808 5808 5808 5808 5807 5806 5805 5804 5803 5801 5800 5797 5794 5790 5786 5782 5777 5773 5768 5763 5759 5755 5748 5742 5736 5730